Total_Precipitation_Accumulation
1.76 1.73 1.35 0.85 0.67 0.59 0.60 0.58 0.51 0.52 0.49 0.56 0.54 0.51 0.48 0.49 0.56 0.59 0.59 0.64 0.78 0.98 1.20 1.36 1.71 1.95 2.17 2.47 2.77 2.99 3.10 3.24 3.35 3.48 3.54 3.40 3.31 3.10 2.86 2.61 2.48 2.44 2.16 2.08
1.70 1.30 0.74 0.54 0.60 0.66 0.69 0.69 0.53 0.51 0.51 0.63 0.63 0.57 0.50 0.54 0.63 0.61 0.59 0.60 0.68 0.84 1.05 1.26 1.54 1.74 1.98 2.25 2.43 2.82 3.03 3.06 3.07 3.08 3.24 3.39 3.56 3.49 3.30 3.06 2.74 2.59 2.42 2.20
1.31 0.85 0.63 0.68 0.78 0.85 0.75 0.65 0.55 0.59 0.63 0.69 0.72 0.73 0.61 0.63 0.57 0.59 0.63 0.64 0.69 0.75 0.91 1.10 1.39 1.60 1.80 2.07 2.23 2.44 2.73 2.93 3.01 3.09 3.39 3.57 3.68 3.56 3.35 3.11 2.83 2.59 2.49 2.32
1.14 0.70 0.75 0.85 0.84 0.82 0.79 0.47 0.51 0.66 0.87 0.98 0.84 1.01 0.79 0.67 0.55 0.57 0.63 0.64 0.71 0.76 0.88 1.01 1.17 1.43 1.67 1.83 2.04 2.23 2.47 2.76 2.98 3.14 3.26 3.27 3.21 3.12 2.94 2.90 2.90 2.73 2.51 2.41
1.19 0.80 0.86 0.96 0.74 0.73 0.70 0.45 0.53 0.74 0.96 1.03 0.74 0.84 0.76 0.53 0.54 0.57 0.60 0.60 0.63 0.73 0.80 0.87 0.98 1.20 1.43 1.62 1.84 2.08 2.27 2.50 2.79 3.04 3.03 3.08 3.00 2.87 2.86 2.81 2.80 2.80 2.60 2.45
0.90 0.79 0.96 0.91 0.64 0.70 0.73 0.76 0.86 0.99 1.41 1.48 0.66 0.67 0.75 0.64 0.66 0.61 0.58 0.58 0.60 0.67 0.76 0.82 0.88 1.06 1.26 1.45 1.59 1.87 2.13 2.27 2.50 2.83 2.85 2.74 2.63 2.52 2.63 2.70 2.64 2.69 2.61 2.44
1.31 1.06 0.93 0.89 0.93 0.97 1.07 1.51 2.01 2.05 1.99 1.21 0.46 0.51 0.72 0.60 0.59 0.63 0.58 0.54 0.54 0.57 0.65 0.70 0.72 0.86 1.12 1.32 1.45 1.62 1.91 2.07 2.21 2.46 2.63 2.65 2.54 2.39 2.34 2.42 2.50 2.56 2.54 2.34
1.41 1.31 0.93 0.96 1.11 1.24 1.14 1.36 1.60 1.44 1.00 0.58 0.41 0.54 0.61 0.47 0.45 0.46 0.45 0.44 0.46 0.51 0.56 0.62 0.67 0.77 0.95 1.15 1.31 1.42 1.61 1.84 1.97 2.11 2.29 2.51 2.46 2.33 2.21 2.14 2.27 2.39 2.42 2.34
1.09 1.06 0.67 0.70 0.74 0.86 1.10 1.13 0.96 1.23 0.86 0.62 0.57 0.57 0.49 0.32 0.33 0.35 0.36 0.35 0.41 0.48 0.52 0.59 0.64 0.72 0.81 0.96 1.14 1.24 1.35 1.56 1.72 1.84 2.03 2.23 2.21 2.06 1.96 1.89 1.91 2.03 2.14 2.18
1.02 1.10 0.69 0.68 0.89 0.91 0.95 0.95 1.16 1.72 1.42 0.87 0.56 0.49 0.56 0.42 0.38 0.37 0.36 0.39 0.42 0.44 0.45 0.52 0.62 0.68 0.75 0.85 0.98 1.08 1.22 1.39 1.55 1.67 1.82 1.93 1.96 1.89 1.77 1.68 1.66 1.71 1.76 1.81
0.91 1.21 0.92 0.89 1.13 0.94 0.92 1.10 1.30 1.38 1.17 1.06 0.70 0.61 0.56 0.47 0.43 0.41 0.41 0.43 0.45 0.44 0.45 0.49 0.56 0.66 0.75 0.85 0.95 1.02 1.09 1.22 1.39 1.53 1.57 1.61 1.65 1.72 1.64 1.58 1.47 1.46 1.54 1.62
0.81 1.24 1.02 0.73 0.66 0.57 0.75 0.89 1.09 1.49 1.13 0.83 0.75 0.64 0.42 0.38 0.40 0.40 0.41 0.44 0.42 0.39 0.41 0.47 0.53 0.63 0.72 0.79 0.90 1.00 1.04 1.12 1.22 1.32 1.39 1.42 1.47 1.55 1.53 1.36 1.28 1.27 1.27 1.36
1.05 1.53 1.39 1.00 0.93 0.84 0.87 0.74 0.84 1.20 1.45 1.10 0.92 0.65 0.37 0.28 0.32 0.36 0.40 0.43 0.39 0.36 0.37 0.40 0.47 0.58 0.69 0.75 0.81 0.88 0.95 1.02 1.12 1.15 1.25 1.34 1.40 1.50 1.56 1.41 1.22 1.16 1.12 1.12
1.33 1.52 1.28 1.12 0.94 0.90 0.87 0.67 0.75 1.43 1.80 1.05 0.65 0.52 0.39 0.35 0.37 0.40 0.44 0.46 0.42 0.39 0.39 0.41 0.47 0.54 0.62 0.70 0.76 0.79 0.84 0.92 0.99 1.04 1.12 1.20 1.24 1.35 1.48 1.49 1.28 1.19 1.13 1.07
1.15 1.39 0.89 0.63 0.51 0.63 0.69 0.64 0.73 1.10 1.10 1.00 0.61 0.50 0.55 0.52 0.54 0.52 0.48 0.45 0.42 0.39 0.41 0.43 0.50 0.56 0.55 0.59 0.67 0.71 0.72 0.78 0.86 0.91 0.99 1.12 1.15 1.19 1.33 1.43 1.42 1.34 1.28 1.18
0.85 1.15 0.88 0.66 0.45 0.53 0.60 0.58 0.64 0.73 0.71 0.71 0.59 0.61 0.53 0.51 0.46 0.48 0.49 0.46 0.48 0.45 0.44 0.43 0.49 0.55 0.55 0.57 0.65 0.70 0.71 0.72 0.79 0.86 0.90 0.99 1.03 1.08 1.17 1.25 1.27 1.33 1.36 1.32
0.65 0.92 1.15 0.86 0.51 0.68 0.88 0.76 0.74 0.71 0.62 0.61 0.70 0.64 0.48 0.46 0.49 0.53 0.51 0.47 0.49 0.47 0.43 0.42 0.45 0.52 0.56 0.55 0.57 0.65 0.72 0.73 0.78 0.85 0.89 0.93 0.96 0.97 1.03 1.09 1.15 1.27 1.37 1.38
0.52 0.77 1.22 0.97 0.76 1.05 0.87 0.60 0.58 0.61 0.61 0.57 0.57 0.49 0.47 0.51 0.53 0.55 0.54 0.49 0.44 0.42 0.39 0.37 0.40 0.45 0.52 0.52 0.51 0.54 0.58 0.65 0.71 0.76 0.78 0.82 0.92 0.97 0.99 1.09 1.24 1.34 1.42 1.50
0.32 0.73 1.25 1.10 0.84 0.61 0.40 0.34 0.47 0.59 0.61 0.51 0.46 0.40 0.38 0.40 0.42 0.48 0.50 0.48 0.45 0.43 0.41 0.38 0.38 0.40 0.43 0.46 0.47 0.50 0.53 0.61 0.66 0.73 0.75 0.76 0.84 1.00 1.12 1.23 1.36 1.47 1.55 1.60
0.32 0.63 1.24 1.14 1.00 0.63 0.39 0.20 0.25 0.45 0.67 0.41 0.37 0.40 0.38 0.37 0.49 0.51 0.46 0.45 0.41 0.37 0.38 0.38 0.36 0.35 0.37 0.41 0.44 0.47 0.53 0.62 0.72 0.82 0.88 0.90 0.96 1.11 1.23 1.32 1.39 1.42 1.46 1.46
0.53 0.83 1.08 0.95 0.94 0.57 0.34 0.19 0.19 0.60 0.77 0.38 0.33 0.39 0.42 0.52 0.62 0.53 0.43 0.42 0.39 0.36 0.36 0.37 0.39 0.44 0.47 0.49 0.53 0.59 0.64 0.79 0.90 0.93 1.00 1.06 1.06 1.07 1.08 1.12 1.12 1.07 1.03 1.04
0.49 0.64 0.68 0.71 0.95 0.71 0.34 0.27 0.52 0.72 0.46 0.38 0.34 0.35 0.40 0.46 0.45 0.43 0.40 0.38 0.38 0.36 0.35 0.38 0.45 0.56 0.60 0.64 0.74 0.79 0.82 0.89 0.94 0.99 1.00 1.02 1.02 1.01 0.97 0.92 0.86 0.79 0.73 0.74
0.47 0.62 0.68 0.71 0.80 0.67 0.48 0.51 0.55 0.46 0.43 0.39 0.39 0.38 0.39 0.41 0.43 0.41 0.41 0.38 0.35 0.34 0.35 0.38 0.43 0.48 0.53 0.60 0.68 0.76 0.76 0.75 0.79 0.85 0.89 0.91 0.87 0.85 0.83 0.79 0.75 0.71 0.68 0.66
0.44 0.36 0.47 0.56 0.54 0.45 0.39 0.34 0.33 0.34 0.40 0.40 0.39 0.38 0.36 0.39 0.39 0.38 0.36 0.36 0.36 0.36 0.37 0.37 0.37 0.38 0.41 0.43 0.50 0.57 0.56 0.57 0.60 0.67 0.72 0.76 0.77 0.76 0.74 0.71 0.69 0.70 0.70 0.67
0.44 0.40 0.47 0.52 0.43 0.34 0.31 0.30 0.31 0.29 0.27 0.28 0.29 0.32 0.35 0.35 0.36 0.37 0.36 0.35 0.37 0.39 0.38 0.39 0.40 0.42 0.45 0.44 0.45 0.48 0.48 0.51 0.54 0.57 0.61 0.64 0.67 0.71 0.73 0.71 0.70 0.71 0.72 0.74
0.42 0.50 0.60 0.59 0.42 0.43 0.39 0.30 0.26 0.25 0.25 0.24 0.24 0.26 0.28 0.30 0.35 0.36 0.38 0.39 0.39 0.39 0.37 0.35 0.37 0.41 0.44 0.45 0.46 0.47 0.47 0.49 0.55 0.59 0.61 0.62 0.65 0.70 0.71 0.70 0.72 0.76 0.73 0.78